Location: Arrington
(35.8681°N, 86.7092°W)
Time: 17:22:12
(UTC+00:00)

STARLINK 1038 - Pass Details

Date: 23 November 2019
Orbit: 431 x 433 km, 53.0° (Epoch: 07 December)

Event Time Altitude Azimuth Distance (km) Brightness Sun altitude
Exits shadow 11:22:39 16° 239° (WSW) 1,205 5.0 -13.8°
Maximum altitude 11:25:14 61° 318° (NW) 490 3.1 -13.3°
Drops below altitude 10° 11:28:38 10° 40° (NE) 1,529 6.2 -12.6°
Sets 11:30:46 0° 44° (NE) 2,398 7.3 -12.2°
